Monroe, WI

3:44 AM CST on November 18, 2019 (GMT -0600)
Monroe Municipal

Weather History for KEFT - October, 2019

Change the Weather History Date:

Monday, October 21, 2019

  Actual Average Record
Temperature  
Mean Temperature 56 °F -  
Max Temperature 63 °F 0 °F 75 °F (2007)
Min Temperature 49 °F - 24 °F (2018)
Degree Days  
Heating Degree Days 9    
Growing Degree Days 6 (Base 50)    
Moisture  
Dew Point 46 °F    
Average Humidity 76    
Maximum Humidity 97    
Minimum Humidity 49    
Precipitation  
Precipitation 0.17 in - - ()
Sea Level Pressure  
Sea Level Pressure 29.48 in    
Wind  
Wind Speed 15 mph (SSE)    
Max Wind Speed 36 mph    
Max Gust Speed 45 mph    
Visibility 9 miles    
Events Rain , Thunderstorm    
Averages and records for this station are not official NWS values.
T = Trace of Precipitation, MM = Missing Value Source: NWS Daily Summary

Daily Weather History Graph

Daily Weather History Graph

Search for Another Location

Airport or City:

Astronomy

Oct. 21, 2019 Rise Set
Actual Time 7:18 AM CDT 6:06 PM CDT
Civil Twilight 6:49 AM CDT 6:35 PM CDT
Nautical Twilight 6:16 AM CDT 7:08 PM CDT
Astronomical Twilight 5:44 AM CDT 7:41 PM CDT
Moon No Moon Rise 2:40 PM CDT (10/21)
Length of Visible Light 11h 45m
Length of Day
10h 48m
Waning Gibbous, 48% of the Moon is Illuminated
Oct 21
Waning Gibbous
Oct 27
New
Nov 4
First Quarter
Nov 12
Full
Nov 19
Last Quarter

Hourly Weather History & Observations

Time (CDT) Temp. Dew Point Humidity Pressure Visibility Wind Dir Wind Speed Gust Speed Precip Events Conditions
12:15 AM 50.7 °F 40.3 °F 67% 29.81 in 10.0 mi East 10.4 mph - N/A   Clear
12:35 AM 50.2 °F 41.0 °F 71% 29.80 in 10.0 mi East 9.2 mph - N/A   Clear
1:15 AM 50.2 °F 43.3 °F 77% 29.77 in 10.0 mi East 8.1 mph - N/A   Overcast
1:35 AM 50.0 °F 44.1 °F 80% 29.79 in 10.0 mi East 6.9 mph - N/A   Overcast
1:55 AM 49.8 °F 44.6 °F 82% 29.78 in 10.0 mi East 11.5 mph - N/A   Overcast
2:15 AM 49.6 °F 45.3 °F 85% 29.77 in 10.0 mi East 9.2 mph 16.1 mph N/A   Overcast
2:35 AM 49.6 °F 45.7 °F 86% 29.76 in 10.0 mi East 10.4 mph - N/A   Overcast
2:55 AM 50.0 °F 46.2 °F 87% 29.76 in 10.0 mi East 6.9 mph - N/A   Overcast
3:15 AM 50.0 °F 46.9 °F 89% 29.74 in 10.0 mi East 9.2 mph - N/A   Overcast
3:35 AM 49.5 °F 47.5 °F 93% 29.72 in 10.0 mi East 9.2 mph - N/A   Overcast
3:55 AM 49.5 °F 47.8 °F 94% 29.70 in 10.0 mi East 6.9 mph - N/A   Overcast
4:15 AM 49.8 °F 48.2 °F 94% 29.68 in 10.0 mi East 11.5 mph 20.7 mph N/A   Overcast
4:35 AM 50.2 °F 48.6 °F 94% 29.66 in 10.0 mi East 6.9 mph - N/A   Overcast
4:55 AM 50.5 °F 48.7 °F 94% 29.65 in 10.0 mi East 11.5 mph 17.3 mph N/A   Overcast
5:15 AM 51.1 °F 48.9 °F 92% 29.63 in 10.0 mi East 11.5 mph 21.9 mph N/A   Overcast
5:35 AM 51.4 °F 48.7 °F 90% 29.62 in 10.0 mi East 12.7 mph 20.7 mph N/A   Mostly Cloudy
5:55 AM 51.8 °F 48.6 °F 89% 29.60 in 10.0 mi East 13.8 mph 21.9 mph N/A   Overcast
6:15 AM 52.2 °F 48.4 °F 87% 29.58 in 10.0 mi East 13.8 mph 19.6 mph N/A   Overcast
6:35 AM 52.7 °F 48.4 °F 85% 29.56 in 10.0 mi East 10.4 mph 19.6 mph N/A Thunderstorm Overcast
6:55 AM 53.4 °F 48.4 °F 83% 29.54 in 10.0 mi ESE 15.0 mph 23.0 mph N/A   Overcast
7:15 AM 54.3 °F 48.6 °F 81% 29.51 in 10.0 mi East 16.1 mph 24.2 mph N/A Thunderstorm Mostly Cloudy
7:35 AM 54.9 °F 49.1 °F 81% 29.49 in 10.0 mi ESE 16.1 mph 24.2 mph N/A   Scattered Clouds
7:55 AM 55.4 °F 49.3 °F 80% 29.47 in 10.0 mi ESE 15.0 mph 21.9 mph N/A   Clear
8:15 AM 56.3 °F 49.8 °F 79% 29.44 in 10.0 mi ESE 19.6 mph 28.8 mph N/A Rain Light Rain
8:35 AM 55.8 °F 50.9 °F 84% 29.40 in 7.0 mi ESE 19.6 mph 31.1 mph 0.01 in Rain Light Rain
8:55 AM 56.3 °F 52.3 °F 87% 29.41 in 10.0 mi SE 19.6 mph 32.2 mph 0.01 in   Overcast
9:15 AM 55.9 °F 53.8 °F 92% 29.41 in 7.0 mi SE 23.0 mph 34.5 mph 0.02 in Rain Light Rain
9:35 AM 55.8 °F 54.5 °F 96% 29.38 in 4.0 mi ESE 17.3 mph 31.1 mph 0.06 in Rain Rain
9:55 AM 55.9 °F 54.9 °F 96% 29.37 in 10.0 mi ESE 16.1 mph 24.2 mph 0.07 in Rain Light Rain
10:15 AM 56.3 °F 55.2 °F 96% 29.36 in 7.0 mi SE 17.3 mph 28.8 mph 0.01 in   Light Drizzle
10:35 AM 56.3 °F 55.4 °F 97% 29.33 in 3.0 mi SE 12.7 mph 24.2 mph 0.04 in Rain Light Rain
10:55 AM 56.3 °F 55.4 °F 97% 29.32 in 3.0 mi SE 21.9 mph 31.1 mph 0.05 in Rain Light Rain
11:15 AM 56.7 °F 55.9 °F 97% 29.31 in 4.0 mi SSE 20.7 mph 28.8 mph N/A   Drizzle
11:35 AM 57.2 °F 56.5 °F 97% 29.31 in 7.0 mi South 27.6 mph 33.4 mph 0.02 in Rain Light Rain
11:55 AM 58.1 °F 57.2 °F 97% 29.31 in 10.0 mi South 23.0 mph 29.9 mph 0.02 in Rain Rain
12:15 PM 58.6 °F 57.4 °F 96% 29.32 in 10.0 mi SSW 19.6 mph 28.8 mph N/A   Drizzle
12:35 PM 59.2 °F 57.9 °F 96% 29.31 in 10.0 mi SSW 17.3 mph 28.8 mph 0.02 in   Overcast
12:55 PM 61.2 °F 57.7 °F 88% 29.32 in 10.0 mi SSW 24.2 mph 29.9 mph 0.02 in   Overcast
1:15 PM 61.7 °F 54.9 °F 78% 29.32 in 10.0 mi SSW 24.2 mph 33.4 mph N/A   Overcast
1:35 PM 63.0 °F 53.8 °F 72% 29.31 in 10.0 mi SSW 24.2 mph 28.8 mph N/A   Overcast
1:55 PM 63.9 °F 49.3 °F 59% 29.31 in 10.0 mi SSW 29.9 mph 41.4 mph N/A   Mostly Cloudy
2:15 PM 62.4 °F 47.5 °F 58% 29.31 in 10.0 mi SSW 26.5 mph 32.2 mph N/A   Scattered Clouds
2:55 PM 61.7 °F 46.2 °F 57% 29.32 in 10.0 mi SSW 21.9 mph 38.0 mph N/A   Mostly Cloudy
3:15 PM 61.7 °F 43.9 °F 52% 29.33 in 10.0 mi SSW 28.8 mph 35.7 mph N/A   Scattered Clouds
3:35 PM 61.0 °F 41.7 °F 49% 29.34 in 10.0 mi SW 26.5 mph 35.7 mph N/A   Scattered Clouds
3:55 PM 60.3 °F 41.7 °F 50% 29.35 in 10.0 mi SSW 26.5 mph 34.5 mph N/A   Scattered Clouds
4:15 PM 58.6 °F 40.8 °F 52% 29.37 in 10.0 mi SSW 26.5 mph 35.7 mph N/A   Mostly Cloudy
4:35 PM 58.3 °F 39.7 °F 50% 29.38 in 10.0 mi SSW 27.6 mph 38.0 mph N/A   Mostly Cloudy
4:55 PM 57.2 °F 39.7 °F 52% 29.38 in 10.0 mi SSW 20.7 mph 32.2 mph N/A   Mostly Cloudy
5:15 PM 56.5 °F 38.5 °F 51% 29.39 in 10.0 mi SW 23.0 mph 33.4 mph N/A   Overcast
5:35 PM 55.8 °F 39.4 °F 54% 29.40 in 10.0 mi SW 15.0 mph 20.7 mph N/A   Overcast
5:55 PM 55.0 °F 39.0 °F 55% 29.41 in 10.0 mi SW 28.8 mph 36.8 mph N/A   Overcast
6:15 PM 53.8 °F 38.8 °F 57% 29.42 in 10.0 mi SW 35.7 mph 44.9 mph N/A   Overcast
6:55 PM 51.3 °F 37.4 °F 59% 29.44 in 10.0 mi SW 27.6 mph 38.0 mph N/A   Overcast
7:15 PM 50.9 °F 37.4 °F 60% 29.45 in 10.0 mi SSW 20.7 mph 34.5 mph N/A   Overcast
7:35 PM 50.4 °F 37.4 °F 61% 29.46 in 10.0 mi SSW 21.9 mph 27.6 mph N/A   Overcast
7:55 PM 50.2 °F 37.8 °F 62% 29.46 in 10.0 mi SSW 17.3 mph 24.2 mph N/A   Overcast
8:15 PM 50.2 °F 37.9 °F 63% 29.46 in 10.0 mi SSW 17.3 mph 20.7 mph N/A   Overcast
8:35 PM 50.2 °F 37.8 °F 62% 29.45 in 10.0 mi SSW 16.1 mph 21.9 mph N/A   Overcast
8:55 PM 50.2 °F 37.8 °F 62% 29.44 in 10.0 mi SSW 19.6 mph 25.3 mph N/A   Overcast
9:15 PM 50.2 °F 38.3 °F 64% 29.44 in 10.0 mi SSW 18.4 mph 26.5 mph N/A   Overcast
9:35 PM 50.2 °F 38.7 °F 65% 29.43 in 10.0 mi SSW 20.7 mph 29.9 mph N/A   Overcast
9:55 PM 50.0 °F 39.4 °F 67% 29.43 in 10.0 mi SSW 18.4 mph 28.8 mph N/A   Overcast
10:15 PM 50.0 °F 39.4 °F 67% 29.42 in 10.0 mi SSW 20.7 mph 29.9 mph N/A   Overcast
10:35 PM 50.0 °F 39.6 °F 67% 29.41 in 10.0 mi SSW 25.3 mph 33.4 mph N/A   Overcast
10:55 PM 49.3 °F 39.6 °F 69% 29.41 in 10.0 mi SSW 21.9 mph 31.1 mph N/A   Scattered Clouds
11:15 PM 50.0 °F 39.9 °F 68% 29.40 in 10.0 mi SSW 25.3 mph 33.4 mph N/A   Mostly Cloudy
11:35 PM 50.2 °F 40.3 °F 69% 29.39 in 10.0 mi SSW 26.5 mph 39.1 mph N/A   Overcast
11:55 PM 50.0 °F 40.5 °F 70% 29.37 in 10.0 mi SSW 25.3 mph 35.7 mph N/A   Overcast